N179LJ MMUN-MROC

Flight info

Callsign N179LJ
Flight time 1h 40m
Altitude 35000
Route ALSUP1C ALSUP UB881 URIOS DCT GABIX DCT TUMEK DCT TIBUT DCT PIRAS BARRA3P
Aircraft B752/M-SDE2E3FGHIJ3J4J7RWXY/LB1

Departure

Time 2026-04-29 16:34
Airport Cancún International Airport (MMUN)

Arrival

Time 2026-04-29 18:15
Airport Juan Santamaría International Airport (MROC)
Time Latitude Longitude Altitude Speed Heading
2026-04-29 16:21 21.04837 -86.88249 48 ft 0 kts 139°
2026-04-29 16:26 21.04837 -86.88250 48 ft 1 kts 139°
2026-04-29 16:26 21.04848 -86.88260 49 ft 2 kts 140°
2026-04-29 16:27 21.04859 -86.88271 49 ft 2 kts 139°
2026-04-29 16:27 21.04871 -86.88281 49 ft 2 kts 140°
2026-04-29 16:27 21.04882 -86.88291 50 ft 2 kts 139°
2026-04-29 16:27 21.04894 -86.88302 50 ft 2 kts 139°
2026-04-29 16:28 21.04907 -86.88308 51 ft 2 kts 181°
2026-04-29 16:28 21.04918 -86.88305 51 ft 0 kts 210°
2026-04-29 16:28 21.04923 -86.88301 51 ft 0 kts 214°
2026-04-29 16:28 21.04924 -86.88301 51 ft 0 kts 214°
2026-04-29 16:30 21.04896 -86.88321 50 ft 10 kts 214°
2026-04-29 16:30 21.04832 -86.88366 48 ft 9 kts 213°
2026-04-29 16:30 21.04788 -86.88397 47 ft 5 kts 213°
2026-04-29 16:30 21.04761 -86.88416 47 ft 5 kts 213°
2026-04-29 16:31 21.04713 -86.88449 45 ft 12 kts 213°
2026-04-29 16:31 21.04615 -86.88516 41 ft 19 kts 213°
2026-04-29 16:31 21.04500 -86.88601 39 ft 19 kts 214°
2026-04-29 16:31 21.04472 -86.88685 38 ft 12 kts 298°
2026-04-29 16:32 21.04519 -86.88766 37 ft 12 kts 304°
2026-04-29 16:32 21.04566 -86.88841 37 ft 11 kts 304°
2026-04-29 16:32 21.04608 -86.88908 38 ft 10 kts 304°
2026-04-29 16:32 21.04642 -86.88964 38 ft 7 kts 292°
2026-04-29 16:33 21.04567 -86.89057 37 ft 17 kts 206°
2026-04-29 16:33 21.04475 -86.89008 36 ft 22 kts 120°
2026-04-29 16:33 21.04279 -86.88699 36 ft 85 kts 124°
2026-04-29 16:34 21.03810 -86.87952 33 ft 152 kts 123°
2026-04-29 16:34 21.03171 -86.86921 461 ft 178 kts 124°
2026-04-29 16:34 21.02473 -86.85784 1191 ft 194 kts 123°
2026-04-29 16:34 21.01724 -86.84555 1801 ft 207 kts 126°
2026-04-29 16:35 21.00543 -86.83568 2353 ft 228 kts 159°
2026-04-29 16:35 20.98938 -86.83168 2925 ft 247 kts 166°
2026-04-29 16:35 20.97209 -86.82762 3564 ft 261 kts 165°
2026-04-29 16:35 20.95423 -86.82333 4434 ft 266 kts 165°
2026-04-29 16:36 20.93596 -86.81893 4948 ft 279 kts 165°
2026-04-29 16:36 20.91686 -86.81435 4933 ft 274 kts 167°
2026-04-29 16:36 20.89816 -86.81428 4960 ft 269 kts 189°
2026-04-29 16:36 20.87959 -86.81850 4950 ft 274 kts 189°
2026-04-29 16:37 20.86096 -86.82241 4940 ft 272 kts 189°
2026-04-29 16:37 20.84244 -86.82660 4938 ft 272 kts 190°
2026-04-29 16:37 20.82380 -86.83098 4941 ft 274 kts 190°
2026-04-29 16:37 20.81110 -86.83403 5112 ft 283 kts 191°
2026-04-29 16:38 20.78611 -86.84013 6484 ft 278 kts 191°
2026-04-29 16:38 20.76695 -86.84483 7174 ft 287 kts 191°
2026-04-29 16:38 20.74726 -86.84969 7961 ft 292 kts 191°
2026-04-29 16:38 20.72733 -86.85462 8714 ft 297 kts 191°
2026-04-29 16:39 20.70696 -86.85967 9416 ft 304 kts 191°
2026-04-29 16:39 20.68643 -86.86475 10150 ft 309 kts 190°
2026-04-29 16:39 20.66462 -86.87014 10556 ft 328 kts 190°
2026-04-29 16:39 20.64191 -86.87575 10855 ft 348 kts 191°
2026-04-29 16:40 20.61756 -86.88177 11021 ft 367 kts 191°
2026-04-29 16:40 20.59243 -86.88800 10983 ft 371 kts 191°
2026-04-29 16:40 20.56746 -86.89445 10990 ft 366 kts 192°
2026-04-29 16:40 20.54259 -86.90095 10993 ft 367 kts 191°
2026-04-29 16:41 20.51741 -86.90732 10994 ft 368 kts 189°
2026-04-29 16:41 20.49203 -86.90969 11385 ft 370 kts 175°
2026-04-29 16:41 20.46617 -86.90966 12176 ft 371 kts 178°
2026-04-29 16:41 20.43996 -86.91003 12768 ft 377 kts 177°
2026-04-29 16:42 20.41382 -86.91008 13445 ft 380 kts 176°
2026-04-29 16:42 20.38728 -86.90999 14025 ft 385 kts 176°
2026-04-29 16:42 20.36015 -86.90984 14646 ft 390 kts 176°
2026-04-29 16:42 20.33298 -86.90963 15314 ft 393 kts 177°
2026-04-29 16:43 20.30515 -86.90940 15873 ft 399 kts 177°
2026-04-29 16:43 20.27758 -86.90916 16464 ft 403 kts 177°
2026-04-29 16:43 20.24903 -86.90892 17040 ft 407 kts 178°
2026-04-29 16:43 20.22055 -86.90866 17619 ft 411 kts 177°
2026-04-29 16:44 20.19196 -86.90841 18192 ft 416 kts 178°
2026-04-29 16:44 20.16296 -86.90815 18719 ft 421 kts 178°
2026-04-29 16:44 20.13309 -86.90788 18997 ft 428 kts 178°
2026-04-29 16:44 20.10323 -86.90762 18990 ft 428 kts 178°
2026-04-29 16:45 20.07358 -86.90736 18989 ft 420 kts 177°
2026-04-29 16:45 20.04468 -86.90717 18992 ft 424 kts 178°
2026-04-29 16:45 20.01462 -86.90725 19533 ft 428 kts 178°
2026-04-29 16:45 19.98475 -86.90732 20062 ft 433 kts 179°
2026-04-29 16:46 19.95446 -86.90739 20673 ft 435 kts 179°
2026-04-29 16:46 19.92397 -86.90746 21081 ft 442 kts 178°
2026-04-29 16:46 19.89330 -86.90753 21601 ft 445 kts 179°
2026-04-29 16:46 19.86188 -86.90761 22177 ft 447 kts 179°
2026-04-29 16:47 19.83065 -86.90768 22580 ft 453 kts 179°
2026-04-29 16:47 19.79894 -86.90775 23076 ft 455 kts 179°
2026-04-29 16:47 19.76734 -86.90783 23504 ft 460 kts 179°
2026-04-29 16:47 19.73506 -86.90786 23935 ft 464 kts 178°
2026-04-29 16:48 19.70255 -86.90765 24368 ft 468 kts 178°
2026-04-29 16:48 19.66997 -86.90754 24873 ft 470 kts 178°
2026-04-29 16:48 19.63693 -86.90734 25344 ft 472 kts 179°
2026-04-29 16:48 19.60432 -86.90717 25755 ft 476 kts 179°
2026-04-29 16:49 19.57083 -86.90700 26067 ft 481 kts 179°
2026-04-29 16:49 19.53749 -86.90687 26597 ft 482 kts 179°
2026-04-29 16:49 19.50331 -86.90672 26805 ft 489 kts 179°
2026-04-29 16:49 19.46950 -86.90659 27398 ft 487 kts 179°
2026-04-29 16:50 19.43502 -86.90645 27660 ft 493 kts 179°
2026-04-29 16:50 19.40080 -86.90633 27992 ft 497 kts 179°
2026-04-29 16:50 19.36595 -86.90619 28403 ft 498 kts 179°
2026-04-29 16:50 19.33089 -86.90605 28674 ft 504 kts 179°
2026-04-29 16:51 19.29597 -86.90591 29002 ft 507 kts 179°
2026-04-29 16:51 19.26077 -86.90579 29474 ft 506 kts 178°
2026-04-29 16:51 19.22514 -86.90566 29791 ft 509 kts 178°
2026-04-29 16:51 19.18959 -86.90552 30225 ft 509 kts 178°
2026-04-29 16:52 19.15394 -86.90538 30523 ft 512 kts 178°
2026-04-29 16:52 19.11833 -86.90525 30838 ft 514 kts 178°
2026-04-29 16:52 19.08258 -86.90511 31256 ft 513 kts 178°
2026-04-29 16:52 19.04673 -86.90495 31449 ft 517 kts 178°
2026-04-29 16:53 19.01049 -86.90452 31773 ft 518 kts 177°
2026-04-29 16:53 18.97479 -86.90406 32319 ft 513 kts 176°
2026-04-29 16:53 18.93882 -86.90355 32692 ft 513 kts 176°
2026-04-29 16:53 18.90329 -86.90283 33363 ft 505 kts 177°
2026-04-29 16:54 18.86817 -86.90219 33713 ft 505 kts 177°
2026-04-29 16:54 18.83313 -86.90163 34265 ft 499 kts 178°
2026-04-29 16:54 18.79858 -86.90113 34510 ft 501 kts 178°
2026-04-29 16:54 18.76337 -86.90063 34836 ft 499 kts 178°
2026-04-29 16:55 18.72891 -86.90018 34982 ft 493 kts 179°
2026-04-29 16:55 18.69478 -86.89973 34980 ft 491 kts 179°
2026-04-29 16:55 18.62597 -86.89883 34981 ft 494 kts 179°
2026-04-29 16:56 18.55715 -86.89795 34975 ft 494 kts 179°
2026-04-29 16:56 18.48814 -86.89706 34973 ft 494 kts 179°
2026-04-29 16:57 18.41988 -86.89153 34991 ft 492 kts 166°
2026-04-29 16:57 18.36561 -86.87353 34980 ft 490 kts 159°
2026-04-29 16:58 18.30148 -86.84937 34973 ft 487 kts 159°
2026-04-29 16:58 18.23758 -86.82495 34975 ft 489 kts 159°
2026-04-29 16:59 18.17337 -86.80029 34975 ft 489 kts 159°
2026-04-29 16:59 18.10960 -86.77576 34969 ft 487 kts 159°
2026-04-29 17:00 18.04553 -86.75113 34961 ft 491 kts 159°
2026-04-29 17:00 17.98169 -86.72660 34960 ft 486 kts 159°
2026-04-29 17:01 17.91821 -86.70222 34971 ft 488 kts 159°
2026-04-29 17:01 17.85436 -86.67772 34954 ft 485 kts 159°
2026-04-29 17:02 17.79065 -86.65328 34952 ft 486 kts 159°
2026-04-29 17:02 17.72731 -86.62901 34950 ft 486 kts 159°
2026-04-29 17:03 17.66339 -86.60454 34948 ft 486 kts 159°
2026-04-29 17:03 17.59960 -86.58012 34957 ft 487 kts 159°
2026-04-29 17:04 17.53632 -86.55594 34960 ft 484 kts 159°
2026-04-29 17:04 17.47290 -86.53173 34960 ft 486 kts 160°
2026-04-29 17:05 17.40899 -86.50737 34958 ft 486 kts 159°
2026-04-29 17:05 17.34562 -86.48324 34957 ft 484 kts 159°
2026-04-29 17:06 17.28227 -86.45902 34955 ft 485 kts 160°
2026-04-29 17:06 17.21878 -86.43481 34949 ft 484 kts 160°
2026-04-29 17:07 17.15462 -86.41200 34950 ft 483 kts 161°
2026-04-29 17:07 17.09100 -86.38973 34960 ft 483 kts 161°
2026-04-29 17:08 17.02711 -86.36743 34967 ft 484 kts 161°
2026-04-29 17:08 16.96340 -86.34520 34956 ft 481 kts 162°
2026-04-29 17:09 16.89959 -86.32297 34962 ft 480 kts 162°
2026-04-29 17:09 16.83603 -86.30083 34955 ft 480 kts 162°
2026-04-29 17:10 16.77253 -86.27837 34956 ft 481 kts 162°
2026-04-29 17:10 16.70902 -86.25581 34950 ft 480 kts 162°
2026-04-29 17:11 16.64579 -86.23367 34947 ft 481 kts 162°
2026-04-29 17:11 16.58235 -86.21158 34953 ft 480 kts 162°
2026-04-29 17:12 16.51899 -86.18959 34950 ft 479 kts 162°
2026-04-29 17:12 16.46581 -86.17117 34955 ft 480 kts 162°
2026-04-29 17:13 16.39178 -86.14555 34954 ft 480 kts 162°
2026-04-29 17:13 16.32870 -86.12373 34955 ft 480 kts 162°
2026-04-29 17:14 16.26490 -86.10168 34950 ft 480 kts 163°
2026-04-29 17:14 16.20175 -86.07988 34949 ft 479 kts 163°
2026-04-29 17:15 16.13834 -86.05799 34949 ft 477 kts 163°
2026-04-29 17:15 16.07532 -86.03609 34945 ft 478 kts 163°
2026-04-29 17:16 16.01213 -86.01412 34948 ft 480 kts 162°
2026-04-29 17:16 15.94868 -85.99207 34948 ft 478 kts 163°
2026-04-29 17:17 15.88549 -85.97013 34945 ft 477 kts 163°
2026-04-29 17:17 15.82274 -85.94836 34953 ft 477 kts 163°
2026-04-29 17:18 15.75987 -85.92657 34955 ft 476 kts 163°
2026-04-29 17:18 15.69665 -85.90466 34969 ft 475 kts 163°
2026-04-29 17:19 15.63376 -85.88289 34995 ft 476 kts 163°
2026-04-29 17:19 15.57092 -85.86114 35020 ft 476 kts 163°
2026-04-29 17:20 15.50793 -85.83936 35046 ft 476 kts 163°
2026-04-29 17:20 15.44504 -85.81763 35055 ft 475 kts 163°
2026-04-29 17:21 15.38222 -85.79593 35055 ft 474 kts 163°
2026-04-29 17:21 15.31968 -85.77434 35047 ft 474 kts 163°
2026-04-29 17:22 15.25711 -85.75277 35050 ft 474 kts 163°
2026-04-29 17:22 15.19416 -85.73106 35049 ft 473 kts 164°
2026-04-29 17:23 15.13184 -85.70960 35066 ft 472 kts 164°
2026-04-29 17:23 15.06932 -85.68808 35067 ft 472 kts 164°
2026-04-29 17:24 15.00718 -85.66670 35068 ft 472 kts 164°
2026-04-29 17:24 14.94482 -85.64525 35059 ft 471 kts 164°
2026-04-29 17:25 14.88240 -85.62380 35043 ft 472 kts 164°
2026-04-29 17:25 14.82014 -85.60242 35024 ft 470 kts 165°
2026-04-29 17:26 14.75790 -85.58106 35010 ft 469 kts 165°
2026-04-29 17:26 14.69610 -85.55987 34996 ft 468 kts 165°
2026-04-29 17:27 14.63394 -85.53854 35004 ft 467 kts 165°
2026-04-29 17:27 14.57226 -85.51743 35009 ft 467 kts 165°
2026-04-29 17:28 14.51061 -85.49631 35012 ft 465 kts 165°
2026-04-29 17:28 14.44923 -85.47531 35020 ft 465 kts 165°
2026-04-29 17:29 14.38751 -85.45421 35023 ft 466 kts 165°
2026-04-29 17:29 14.32609 -85.43321 35017 ft 463 kts 165°
2026-04-29 17:30 14.26498 -85.41233 35010 ft 462 kts 165°
2026-04-29 17:30 14.20380 -85.39145 35001 ft 462 kts 165°
2026-04-29 17:31 14.14257 -85.37056 34991 ft 461 kts 165°
2026-04-29 17:31 14.08173 -85.34982 34988 ft 461 kts 166°
2026-04-29 17:32 14.02054 -85.32899 34972 ft 459 kts 166°
2026-04-29 17:32 13.95991 -85.30842 34975 ft 457 kts 166°
2026-04-29 17:33 13.89934 -85.28789 34984 ft 459 kts 166°
2026-04-29 17:33 13.83879 -85.26736 34986 ft 458 kts 166°
2026-04-29 17:34 13.77794 -85.24674 34998 ft 457 kts 166°
2026-04-29 17:34 13.71761 -85.22630 34998 ft 457 kts 166°
2026-04-29 17:35 13.62685 -85.19556 34974 ft 456 kts 166°
2026-04-29 17:36 13.56672 -85.17519 34959 ft 455 kts 166°
2026-04-29 17:36 13.50616 -85.15470 34939 ft 456 kts 166°
2026-04-29 17:37 13.44603 -85.13435 34933 ft 456 kts 166°
2026-04-29 17:37 13.38553 -85.11388 34932 ft 455 kts 166°
2026-04-29 17:38 13.32514 -85.09345 34916 ft 455 kts 166°
2026-04-29 17:38 13.26495 -85.07310 34916 ft 455 kts 166°
2026-04-29 17:39 13.20458 -85.05269 34911 ft 454 kts 166°
2026-04-29 17:39 13.14458 -85.03241 34913 ft 454 kts 166°
2026-04-29 17:40 13.08464 -85.01215 34905 ft 454 kts 166°
2026-04-29 17:40 13.02458 -84.99187 34902 ft 454 kts 166°
2026-04-29 17:41 12.96370 -84.97405 34895 ft 453 kts 168°
2026-04-29 17:41 12.90310 -84.95651 34901 ft 453 kts 168°
2026-04-29 17:42 12.84251 -84.93884 34919 ft 451 kts 168°
2026-04-29 17:42 12.78197 -84.92117 34925 ft 452 kts 168°
2026-04-29 17:43 12.72123 -84.90343 34928 ft 452 kts 168°
2026-04-29 17:43 12.66074 -84.88577 34933 ft 452 kts 168°
2026-04-29 17:44 12.60012 -84.86807 34938 ft 451 kts 168°
2026-04-29 17:44 12.53968 -84.85042 34942 ft 452 kts 168°
2026-04-29 17:45 12.47918 -84.83277 34940 ft 452 kts 168°
2026-04-29 17:45 12.41824 -84.81500 34936 ft 452 kts 168°
2026-04-29 17:46 12.35778 -84.79739 34938 ft 453 kts 168°
2026-04-29 17:46 12.29698 -84.77967 34938 ft 452 kts 168°
2026-04-29 17:47 12.23646 -84.76205 34942 ft 451 kts 168°
2026-04-29 17:47 12.17586 -84.74442 34937 ft 451 kts 168°
2026-04-29 17:48 12.11534 -84.72681 34929 ft 451 kts 168°
2026-04-29 17:48 12.05508 -84.70929 34922 ft 451 kts 168°
2026-04-29 17:49 11.99457 -84.69171 34917 ft 452 kts 167°
2026-04-29 17:49 11.93391 -84.67409 34919 ft 452 kts 168°
2026-04-29 17:50 11.87313 -84.65644 34929 ft 452 kts 167°
2026-04-29 17:50 11.81259 -84.63887 34927 ft 452 kts 167°
2026-04-29 17:51 11.75198 -84.62129 34931 ft 452 kts 167°
2026-04-29 17:51 11.69168 -84.60381 34931 ft 451 kts 167°
2026-04-29 17:52 11.63124 -84.58630 34923 ft 451 kts 167°
2026-04-29 17:52 11.57099 -84.56817 34919 ft 451 kts 165°
2026-04-29 17:53 11.51063 -84.54934 34912 ft 452 kts 167°
2026-04-29 17:53 11.45035 -84.53135 34905 ft 450 kts 167°
2026-04-29 17:53 11.42044 -84.52254 34890 ft 435 kts 167°
2026-04-29 17:54 11.39191 -84.51417 34837 ft 421 kts 167°
2026-04-29 17:54 11.36365 -84.50593 34145 ft 421 kts 167°
2026-04-29 17:54 11.33546 -84.49776 33257 ft 423 kts 167°
2026-04-29 17:54 11.30725 -84.48957 32558 ft 420 kts 167°
2026-04-29 17:55 11.27942 -84.48148 31980 ft 413 kts 167°
2026-04-29 17:55 11.25165 -84.47344 31425 ft 415 kts 167°
2026-04-29 17:55 11.22381 -84.46540 30886 ft 425 kts 167°
2026-04-29 17:55 11.19504 -84.45709 30330 ft 430 kts 168°
2026-04-29 17:56 11.16613 -84.44872 29773 ft 430 kts 168°
2026-04-29 17:56 11.13758 -84.44044 29231 ft 424 kts 168°
2026-04-29 17:56 11.10925 -84.43224 28695 ft 417 kts 168°
2026-04-29 17:56 11.08185 -84.42430 28195 ft 412 kts 168°
2026-04-29 17:57 11.05393 -84.41625 27691 ft 411 kts 168°
2026-04-29 17:57 11.02645 -84.40831 27195 ft 412 kts 168°
2026-04-29 17:57 10.99909 -84.40041 26696 ft 413 kts 167°
2026-04-29 17:57 10.97148 -84.39243 26185 ft 410 kts 167°
2026-04-29 17:58 10.94385 -84.38448 25677 ft 407 kts 168°
2026-04-29 17:58 10.91613 -84.37936 25181 ft 401 kts 178°
2026-04-29 17:58 10.88849 -84.37956 24704 ft 397 kts 188°
2026-04-29 17:58 10.86141 -84.38495 24234 ft 394 kts 197°
2026-04-29 17:59 10.83502 -84.39281 23750 ft 394 kts 198°
2026-04-29 17:59 10.80873 -84.40091 23259 ft 394 kts 199°
2026-04-29 17:59 10.78264 -84.40922 22764 ft 392 kts 199°
2026-04-29 17:59 10.75674 -84.41760 22287 ft 390 kts 199°
2026-04-29 18:00 10.73107 -84.42601 21816 ft 388 kts 200°
2026-04-29 18:00 10.70555 -84.43442 21338 ft 384 kts 199°
2026-04-29 18:00 10.67990 -84.44291 20890 ft 381 kts 199°
2026-04-29 18:00 10.65484 -84.45122 20437 ft 381 kts 199°
2026-04-29 18:01 10.62947 -84.45965 19976 ft 380 kts 199°
2026-04-29 18:01 10.60437 -84.46799 19517 ft 377 kts 199°
2026-04-29 18:01 10.57973 -84.47618 19072 ft 375 kts 199°
2026-04-29 18:01 10.55486 -84.48444 18608 ft 374 kts 199°
2026-04-29 18:02 10.53018 -84.49264 18157 ft 373 kts 199°
2026-04-29 18:02 10.50547 -84.50085 17696 ft 371 kts 198°
2026-04-29 18:02 10.48099 -84.50899 17238 ft 369 kts 198°
2026-04-29 18:02 10.45638 -84.51717 16838 ft 365 kts 198°
2026-04-29 18:03 10.43244 -84.52511 16404 ft 364 kts 198°
2026-04-29 18:03 10.40829 -84.53312 15995 ft 362 kts 198°
2026-04-29 18:03 10.38422 -84.54111 15571 ft 360 kts 198°
2026-04-29 18:03 10.36074 -84.54890 15193 ft 359 kts 198°
2026-04-29 18:04 10.33691 -84.55680 14740 ft 359 kts 197°
2026-04-29 18:04 10.31325 -84.56465 14297 ft 355 kts 197°
2026-04-29 18:04 10.28966 -84.57246 13914 ft 352 kts 197°
2026-04-29 18:04 10.26654 -84.58014 13522 ft 351 kts 197°
2026-04-29 18:05 10.24316 -84.58789 13114 ft 351 kts 197°
2026-04-29 18:05 10.22004 -84.59556 12603 ft 350 kts 197°
2026-04-29 18:05 10.19690 -84.60323 12192 ft 340 kts 197°
2026-04-29 18:05 10.17499 -84.61048 12162 ft 322 kts 196°
2026-04-29 18:06 10.15362 -84.61418 12138 ft 299 kts 178°
2026-04-29 18:06 10.13359 -84.61027 12073 ft 298 kts 158°
2026-04-29 18:06 10.11415 -84.60143 11666 ft 311 kts 152°
2026-04-29 18:06 10.09474 -84.59136 11201 ft 306 kts 150°
2026-04-29 18:07 10.07639 -84.58123 10826 ft 294 kts 149°
2026-04-29 18:07 10.05889 -84.57119 10466 ft 291 kts 148°
2026-04-29 18:07 10.04099 -84.56080 10038 ft 292 kts 148°
2026-04-29 18:07 10.02386 -84.55076 9994 ft 277 kts 148°
2026-04-29 18:08 10.00767 -84.54114 9976 ft 261 kts 148°
2026-04-29 18:08 9.99258 -84.53211 10006 ft 242 kts 147°
2026-04-29 18:08 9.97827 -84.52350 9936 ft 241 kts 147°
2026-04-29 18:08 9.96332 -84.51445 9599 ft 254 kts 148°
2026-04-29 18:09 9.94815 -84.50529 9233 ft 252 kts 148°
2026-04-29 18:09 9.93309 -84.49618 8862 ft 254 kts 147°
2026-04-29 18:09 9.91783 -84.48663 8410 ft 258 kts 140°
2026-04-29 18:09 9.90670 -84.47278 7981 ft 257 kts 111°
2026-04-29 18:10 9.90211 -84.45538 7554 ft 258 kts 86°
2026-04-29 18:10 9.90657 -84.43816 7223 ft 254 kts 66°
2026-04-29 18:10 9.91347 -84.42156 6836 ft 256 kts 68°
2026-04-29 18:10 9.91997 -84.40484 6498 ft 255 kts 68°
2026-04-29 18:11 9.92632 -84.38831 6142 ft 245 kts 68°
2026-04-29 18:11 9.93230 -84.37260 5842 ft 235 kts 68°
2026-04-29 18:11 9.93804 -84.35745 5552 ft 226 kts 68°
2026-04-29 18:11 9.94352 -84.34289 5282 ft 217 kts 69°
2026-04-29 18:12 9.94873 -84.32884 5080 ft 209 kts 69°
2026-04-29 18:12 9.95384 -84.31521 4792 ft 203 kts 69°
2026-04-29 18:12 9.95872 -84.30223 4535 ft 186 kts 69°
2026-04-29 18:12 9.96307 -84.29065 4333 ft 167 kts 70°
2026-04-29 18:13 9.96699 -84.28028 4093 ft 150 kts 69°
2026-04-29 18:13 9.97067 -84.27048 3916 ft 152 kts 71°
2026-04-29 18:13 9.97449 -84.26032 3729 ft 153 kts 71°
2026-04-29 18:13 9.97821 -84.25050 3528 ft 145 kts 72°
2026-04-29 18:14 9.98178 -84.24094 3358 ft 144 kts 69°
2026-04-29 18:14 9.98551 -84.23153 3168 ft 144 kts 68°
2026-04-29 18:14 9.98891 -84.22217 3000 ft 138 kts 69°
2026-04-29 18:14 9.99214 -84.21345 2984 ft 115 kts 71°
2026-04-29 18:15 9.99427 -84.20774 3010 ft 65 kts 67°
2026-04-29 18:15 9.99537 -84.20496 3025 ft 20 kts 69°
2026-04-29 18:15 9.99587 -84.20435 3029 ft 6 kts 14°
2026-04-29 18:15 9.99620 -84.20434 3030 ft 3 kts 359°
2026-04-29 18:16 9.99641 -84.20431 3031 ft 2 kts 19°
2026-04-29 18:16 9.99656 -84.20419 3032 ft 2 kts 51°
2026-04-29 18:16 9.99671 -84.20389 3034 ft 7 kts 67°
2026-04-29 18:16 9.99691 -84.20368 3035 ft 4 kts 12°
2026-04-29 18:17 9.99728 -84.20376 3036 ft 2 kts 342°
2026-04-29 18:17 9.99729 -84.20377 3036 ft 0 kts 342°